Wetterdaten: Mittwoch, 14.08.2013
Datum Zeit Temperatur Luftfeuchte Luftdruck Regen Wind Richtung Richtung Taupunkt Windchill Windben
14.08.2013 00:00 12,5 C 82 % 1023,9 hPa 0,0 l/m 1,3 km/h (1 Bft) NO 45 9,5 C 12,4 C 0,0 km/h (0 Bft)
14.08.2013 00:05 12,5 C 82 % 1023,9 hPa 0,0 l/m 0,0 km/h (0 Bft) O-SO 112 9,5 C 12,4 C 0,0 km/h (0 Bft)
14.08.2013 00:10 12,5 C 82 % 1023,9 hPa 0,0 l/m 0,0 km/h (0 Bft) O-NO 67 9,5 C 12,4 C 0,0 km/h (0 Bft)
14.08.2013 00:15 12,5 C 82 % 1023,9 hPa 0,0 l/m 0,2 km/h (0 Bft) O 90 9,5 C 12,4 C 2,9 km/h (1 Bft)
14.08.2013 00:20 12,6 C 82 % 1023,8 hPa 0,0 l/m 1,1 km/h (1 Bft) O-NO 67 9,6 C 12,4 C 2,1 km/h (1 Bft)
14.08.2013 00:25 12,6 C 82 % 1023,8 hPa 0,0 l/m 2,7 km/h (1 Bft) O 90 9,6 C 12,4 C 3,9 km/h (1 Bft)
14.08.2013 00:30 12,5 C 82 % 1023,8 hPa 0,0 l/m 2,9 km/h (1 Bft) O 90 9,5 C 12,4 C 2,9 km/h (1 Bft)
14.08.2013 00:35 12,4 C 81 % 1023,8 hPa 0,0 l/m 2,9 km/h (1 Bft) O-NO 67 9,2 C 12,4 C 4,2 km/h (1 Bft)
14.08.2013 00:40 12,4 C 82 % 1023,8 hPa 0,0 l/m 2,7 km/h (1 Bft) O 90 9,4 C 12,3 C 2,9 km/h (1 Bft)
14.08.2013 00:45 12,4 C 82 % 1023,8 hPa 0,0 l/m 2,3 km/h (1 Bft) NO 45 9,4 C 12,3 C 0,0 km/h (0 Bft)
14.08.2013 00:50 12,3 C 82 % 1023,8 hPa 0,0 l/m 1,3 km/h (1 Bft) O-SO 112 9,3 C 12,2 C 0,0 km/h (0 Bft)
14.08.2013 00:55 12,2 C 83 % 1023,8 hPa 0,0 l/m 0,0 km/h (0 Bft) N-NO 22 9,4 C 12,1 C 0,0 km/h (0 Bft)
14.08.2013 01:00 12,2 C 83 % 1023,9 hPa 0,0 l/m 0,0 km/h (0 Bft) NO 45 9,4 C 12,1 C 0,0 km/h (0 Bft)
14.08.2013 01:05 12,1 C 83 % 1023,9 hPa 0,0 l/m 0,0 km/h (0 Bft) N-NO 22 9,3 C 12,0 C 0,0 km/h (0 Bft)
14.08.2013 01:10 12,1 C 84 % 1023,9 hPa 0,0 l/m 0,0 km/h (0 Bft) N-NO 22 9,5 C 12,0 C 0,0 km/h (0 Bft)
14.08.2013 01:15 12,1 C 84 % 1023,9 hPa 0,0 l/m 0,0 km/h (0 Bft) O 90 9,5 C 12,0 C 0,0 km/h (0 Bft)
14.08.2013 01:20 12,2 C 84 % 1023,8 hPa 0,0 l/m 0,0 km/h (0 Bft) NO 45 9,6 C 12,0 C 0,0 km/h (0 Bft)
14.08.2013 01:25 12,2 C 84 % 1023,8 hPa 0,0 l/m 0,0 km/h (0 Bft) O-SO 112 9,6 C 12,0 C 0,0 km/h (0 Bft)
14.08.2013 01:30 12,2 C 84 % 1023,8 hPa 0,0 l/m 0,0 km/h (0 Bft) O-SO 112 9,6 C 12,0 C 0,0 km/h (0 Bft)
14.08.2013 01:35 12,2 C 85 % 1023,8 hPa 0,0 l/m 0,0 km/h (0 Bft) SO 135 9,8 C 12,0 C 0,0 km/h (0 Bft)
14.08.2013 01:40 12,1 C 85 % 1023,9 hPa 0,0 l/m 0,0 km/h (0 Bft) O 90 9,7 C 12,0 C 0,0 km/h (0 Bft)
14.08.2013 01:45 12,2 C 85 % 1023,9 hPa 0,0 l/m 0,0 km/h (0 Bft) NO 45 9,8 C 12,0 C 0,0 km/h (0 Bft)
14.08.2013 01:50 12,2 C 85 % 1023,9 hPa 0,0 l/m 0,0 km/h (0 Bft) O 90 9,8 C 12,0 C 0,0 km/h (0 Bft)
14.08.2013 01:55 12,2 C 85 % 1023,9 hPa 0,0 l/m 0,0 km/h (0 Bft) O-SO 112 9,8 C 12,0 C 0,0 km/h (0 Bft)
14.08.2013 02:00 12,2 C 85 % 1023,9 hPa 0,0 l/m 0,0 km/h (0 Bft) O 90 9,8 C 12,0 C 0,0 km/h (0 Bft)
14.08.2013 02:05 12,3 C 84 % 1023,9 hPa 0,0 l/m 0,0 km/h (0 Bft) O 90 9,7 C 12,1 C 0,0 km/h (0 Bft)
14.08.2013 02:10 12,4 C 83 % 1023,9 hPa 0,0 l/m 0,3 km/h (0 Bft) O 90 9,6 C 12,1 C 2,7 km/h (1 Bft)
14.08.2013 02:15 12,4 C 83 % 1023,9 hPa 0,0 l/m 1,4 km/h (1 Bft) O 90 9,6 C 12,2 C 1,8 km/h (1 Bft)
14.08.2013 02:20 12,4 C 83 % 1023,6 hPa 0,0 l/m 1,8 km/h (1 Bft) O 90 9,6 C 12,3 C 0,0 km/h (0 Bft)
14.08.2013 02:25 12,3 C 83 % 1023,6 hPa 0,0 l/m 0,3 km/h (0 Bft) O-NO 67 9,5 C 12,2 C 0,0 km/h (0 Bft)
14.08.2013 02:30 12,2 C 83 % 1023,6 hPa 0,0 l/m 0,0 km/h (0 Bft) O 90 9,4 C 12,1 C 0,0 km/h (0 Bft)
14.08.2013 02:35 12,2 C 83 % 1023,6 hPa 0,0 l/m 0,0 km/h (0 Bft) O 90 9,4 C 12,1 C 0,0 km/h (0 Bft)
14.08.2013 02:40 12,3 C 83 % 1023,6 hPa 0,0 l/m 0,5 km/h (0 Bft) O 90 9,5 C 12,1 C 1,6 km/h (1 Bft)
14.08.2013 02:45 12,3 C 83 % 1023,6 hPa 0,0 l/m 0,8 km/h (0 Bft) O 90 9,5 C 12,1 C 0,0 km/h (0 Bft)
14.08.2013 02:50 12,3 C 83 % 1023,6 hPa 0,0 l/m 0,3 km/h (0 Bft) O 90 9,5 C 12,1 C 0,0 km/h (0 Bft)
14.08.2013 02:55 12,3 C 83 % 1023,6 hPa 0,0 l/m 0,0 km/h (0 Bft) SO 135 9,5 C 12,1 C 0,0 km/h (0 Bft)
14.08.2013 03:00 12,2 C 84 % 1023,5 hPa 0,0 l/m 0,0 km/h (0 Bft) SO 135 9,6 C 12,1 C 0,0 km/h (0 Bft)
14.08.2013 03:05 12,1 C 85 % 1023,5 hPa 0,0 l/m 0,0 km/h (0 Bft) O 90 9,7 C 12,1 C 0,0 km/h (0 Bft)
14.08.2013 03:10 12,2 C 84 % 1023,5 hPa 0,0 l/m 0,0 km/h (0 Bft) O-SO 112 9,6 C 12,0 C 0,0 km/h (0 Bft)
14.08.2013 03:15 12,2 C 84 % 1023,5 hPa 0,0 l/m 0,0 km/h (0 Bft) O 90 9,6 C 12,1 C 0,0 km/h (0 Bft)
14.08.2013 03:20 12,3 C 84 % 1023,6 hPa 0,0 l/m 0,0 km/h (0 Bft) O-NO 67 9,7 C 12,1 C 0,0 km/h (0 Bft)
14.08.2013 03:25 12,3 C 83 % 1023,6 hPa 0,0 l/m 0,2 km/h (0 Bft) O 90 9,5 C 12,1 C 1,6 km/h (1 Bft)
14.08.2013 03:30 12,3 C 83 % 1023,6 hPa 0,0 l/m 0,3 km/h (0 Bft) O 90 9,5 C 12,1 C 1,6 km/h (1 Bft)
14.08.2013 03:35 12,3 C 83 % 1023,6 hPa 0,0 l/m 0,2 km/h (0 Bft) O 90 9,5 C 12,1 C 0,0 km/h (0 Bft)
14.08.2013 03:40 12,2 C 83 % 1023,2 hPa 0,0 l/m 0,0 km/h (0 Bft) O-NO 67 9,4 C 12,1 C 0,0 km/h (0 Bft)
14.08.2013 03:45 12,2 C 83 % 1023,2 hPa 0,0 l/m 0,0 km/h (0 Bft) O-SO 112 9,4 C 12,1 C 0,0 km/h (0 Bft)
14.08.2013 03:50 12,2 C 83 % 1023,2 hPa 0,0 l/m 0,0 km/h (0 Bft) O-NO 67 9,4 C 12,1 C 0,0 km/h (0 Bft)
14.08.2013 03:55 12,1 C 83 % 1023,2 hPa 0,0 l/m 0,0 km/h (0 Bft) N-NO 22 9,3 C 12,0 C 0,0 km/h (0 Bft)
14.08.2013 04:00 12,1 C 83 % 1023,4 hPa 0,0 l/m 0,0 km/h (0 Bft) N-NO 22 9,3 C 12,0 C 0,0 km/h (0 Bft)
14.08.2013 04:05 12,1 C 84 % 1023,4 hPa 0,0 l/m 0,2 km/h (0 Bft) NO 45 9,5 C 11,9 C 1,6 km/h (1 Bft)
14.08.2013 04:10 12,1 C 83 % 1023,4 hPa 0,0 l/m 0,3 km/h (0 Bft) O-NO 67 9,3 C 11,9 C 2,7 km/h (1 Bft)
14.08.2013 04:15 12,1 C 83 % 1023,4 hPa 0,0 l/m 1,0 km/h (0 Bft) NO 45 9,3 C 12,0 C 0,0 km/h (0 Bft)
14.08.2013 04:20 12,1 C 83 % 1023,4 hPa 0,0 l/m 1,3 km/h (1 Bft) O 90 9,3 C 12,0 C 2,3 km/h (1 Bft)
14.08.2013 04:25 12,1 C 83 % 1023,4 hPa 0,0 l/m 1,3 km/h (1 Bft) O 90 9,3 C 12,0 C 0,0 km/h (0 Bft)
14.08.2013 04:30 12,1 C 83 % 1023,4 hPa 0,0 l/m 1,1 km/h (1 Bft) O 90 9,3 C 12,0 C 0,0 km/h (0 Bft)
14.08.2013 04:35 11,9 C 83 % 1023,4 hPa 0,0 l/m 0,2 km/h (0 Bft) NO 45 9,1 C 11,9 C 0,0 km/h (0 Bft)
14.08.2013 04:40 11,9 C 83 % 1023,4 hPa 0,0 l/m 0,0 km/h (0 Bft) O-SO 112 9,1 C 11,8 C 0,0 km/h (0 Bft)
14.08.2013 04:45 11,8 C 83 % 1023,4 hPa 0,0 l/m 0,0 km/h (0 Bft) O 90 9,0 C 11,7 C 0,0 km/h (0 Bft)
14.08.2013 04:50 11,8 C 84 % 1023,4 hPa 0,0 l/m 0,2 km/h (0 Bft) O-NO 67 9,2 C 11,7 C 1,9 km/h (1 Bft)
14.08.2013 04:55 11,7 C 83 % 1023,4 hPa 0,0 l/m 0,2 km/h (0 Bft) NO 45 8,9 C 11,5 C 0,0 km/h (0 Bft)
14.08.2013 05:00 11,6 C 83 % 1023,5 hPa 0,0 l/m 0,5 km/h (0 Bft) O-NO 67 8,8 C 11,4 C 1,9 km/h (1 Bft)
14.08.2013 05:05 11,5 C 83 % 1023,5 hPa 0,0 l/m 0,8 km/h (0 Bft) O 90 8,7 C 11,1 C 1,9 km/h (1 Bft)
14.08.2013 05:10 11,5 C 83 % 1023,5 hPa 0,0 l/m 0,8 km/h (0 Bft) O-NO 67 8,7 C 11,1 C 0,0 km/h (0 Bft)
14.08.2013 05:15 11,6 C 84 % 1023,5 hPa 0,0 l/m 0,6 km/h (0 Bft) NO 45 9,0 C 11,3 C 0,0 km/h (0 Bft)
14.08.2013 05:20 11,5 C 84 % 1023,5 hPa 0,0 l/m 0,3 km/h (0 Bft) N-NO 22 8,9 C 11,3 C 0,0 km/h (0 Bft)
14.08.2013 05:25 11,5 C 84 % 1023,5 hPa 0,0 l/m 0,0 km/h (0 Bft) O 90 8,9 C 11,3 C 0,0 km/h (0 Bft)
14.08.2013 05:30 11,6 C 84 % 1023,5 hPa 0,0 l/m 0,0 km/h (0 Bft) O-SO 112 9,0 C 11,3 C 0,0 km/h (0 Bft)
14.08.2013 05:35 11,5 C 84 % 1023,5 hPa 0,0 l/m 0,0 km/h (0 Bft) NO 45 8,9 C 11,3 C 0,0 km/h (0 Bft)
14.08.2013 05:40 11,4 C 85 % 1023,4 hPa 0,0 l/m 0,0 km/h (0 Bft) NO 45 9,0 C 11,2 C 0,0 km/h (0 Bft)
14.08.2013 05:45 10,9 C 85 % 1023,4 hPa 0,0 l/m 0,2 km/h (0 Bft) O 90 8,5 C 10,9 C 0,0 km/h (0 Bft)
14.08.2013 05:50 10,9 C 85 % 1023,4 hPa 0,0 l/m 0,2 km/h (0 Bft) O-NO 67 8,5 C 10,7 C 0,0 km/h (0 Bft)
14.08.2013 05:55 10,7 C 85 % 1023,4 hPa 0,0 l/m 0,2 km/h (0 Bft) O 90 8,3 C 10,4 C 1,6 km/h (1 Bft)
14.08.2013 06:00 10,8 C 85 % 1023,4 hPa 0,0 l/m 0,8 km/h (0 Bft) O-NO 67 8,4 C 10,3 C 2,4 km/h (1 Bft)
14.08.2013 06:05 10,9 C 85 % 1023,4 hPa 0,0 l/m 2,1 km/h (1 Bft) O 90 8,5 C 10,4 C 1,8 km/h (1 Bft)
14.08.2013 06:10 10,8 C 85 % 1023,4 hPa 0,0 l/m 1,4 km/h (1 Bft) SO 135 8,4 C 10,4 C 0,0 km/h (0 Bft)
14.08.2013 06:15 10,9 C 85 % 1023,4 hPa 0,0 l/m 0,6 km/h (0 Bft) O 90 8,5 C 10,4 C 1,8 km/h (1 Bft)
14.08.2013 06:20 11,0 C 85 % 1023,2 hPa 0,0 l/m 0,5 km/h (0 Bft) O-NO 67 8,6 C 10,5 C 0,0 km/h (0 Bft)
14.08.2013 06:25 11,0 C 85 % 1023,2 hPa 0,0 l/m 0,2 km/h (0 Bft) O-SO 112 8,6 C 10,6 C 0,0 km/h (0 Bft)
14.08.2013 06:30 10,9 C 85 % 1023,2 hPa 0,0 l/m 0,2 km/h (0 Bft) O-SO 112 8,5 C 10,5 C 0,0 km/h (0 Bft)
14.08.2013 06:35 10,8 C 85 % 1023,2 hPa 0,0 l/m 0,0 km/h (0 Bft) NO 45 8,4 C 10,4 C 0,0 km/h (0 Bft)
14.08.2013 06:40 10,9 C 85 % 1023,4 hPa 0,0 l/m 0,0 km/h (0 Bft) O 90 8,5 C 10,5 C 0,0 km/h (0 Bft)
14.08.2013 06:45 11,2 C 85 % 1023,4 hPa 0,0 l/m 0,0 km/h (0 Bft) SO 135 8,8 C 10,7 C 0,0 km/h (0 Bft)
14.08.2013 06:50 11,2 C 85 % 1023,4 hPa 0,0 l/m 0,0 km/h (0 Bft) SO 135 8,8 C 10,9 C 0,0 km/h (0 Bft)
14.08.2013 06:55 11,3 C 85 % 1023,4 hPa 0,0 l/m 0,0 km/h (0 Bft) S-SW 202 8,9 C 11,0 C 0,0 km/h (0 Bft)
14.08.2013 07:00 11,3 C 85 % 1023,6 hPa 0,0 l/m 0,0 km/h (0 Bft) O 90 8,9 C 11,1 C 0,0 km/h (0 Bft)
14.08.2013 07:05 11,4 C 86 % 1023,6 hPa 0,0 l/m 0,0 km/h (0 Bft) NO 45 9,1 C 11,2 C 0,0 km/h (0 Bft)
14.08.2013 07:10 11,4 C 86 % 1023,6 hPa 0,0 l/m 0,0 km/h (0 Bft) N-NO 22 9,1 C 11,3 C 0,0 km/h (0 Bft)
14.08.2013 07:15 11,4 C 86 % 1023,6 hPa 0,0 l/m 0,0 km/h (0 Bft) N 360 9,1 C 11,4 C 0,0 km/h (0 Bft)
14.08.2013 07:20 11,5 C 86 % 1023,6 hPa 0,0 l/m 0,0 km/h (0 Bft) N 360 9,2 C 11,4 C 0,0 km/h (0 Bft)
14.08.2013 07:25 11,7 C 85 % 1023,6 hPa 0,0 l/m 0,0 km/h (0 Bft) NO 45 9,3 C 11,7 C 0,0 km/h (0 Bft)
14.08.2013 07:30 11,8 C 85 % 1023,6 hPa 0,0 l/m 0,0 km/h (0 Bft) NO 45 9,4 C 11,8 C 0,0 km/h (0 Bft)
14.08.2013 07:35 12,2 C 84 % 1023,6 hPa 0,0 l/m 0,0 km/h (0 Bft) S 180 9,6 C 12,1 C 0,0 km/h (0 Bft)
14.08.2013 07:40 12,3 C 83 % 1023,6 hPa 0,0 l/m 0,0 km/h (0 Bft) O-NO 67 9,5 C 12,4 C 0,0 km/h (0 Bft)
14.08.2013 07:45 12,5 C 81 % 1023,6 hPa 0,0 l/m 0,2 km/h (0 Bft) O-NO 67 9,3 C 12,7 C 0,0 km/h (0 Bft)
14.08.2013 07:50 12,8 C 81 % 1023,6 hPa 0,0 l/m 0,8 km/h (0 Bft) NO 45 9,6 C 12,9 C 3,1 km/h (1 Bft)
14.08.2013 07:55 14,3 C 77 % 1023,6 hPa 0,0 l/m 1,0 km/h (0 Bft) O 90 10,3 C 13,6 C 0,0 km/h (0 Bft)
14.08.2013 08:00 13,5 C 77 % 1023,9 hPa 0,0 l/m 0,6 km/h (0 Bft) N-NW 337 9,5 C 14,0 C 1,6 km/h (1 Bft)
14.08.2013 08:05 13,4 C 74 % 1023,9 hPa 0,0 l/m 0,6 km/h (0 Bft) N-NO 22 8,9 C 14,0 C 2,3 km/h (1 Bft)
14.08.2013 08:10 13,7 C 74 % 1023,9 hPa 0,0 l/m 1,0 km/h (0 Bft) N-NW 337 9,2 C 14,3 C 4,2 km/h (1 Bft)
14.08.2013 08:15 14,0 C 71 % 1023,9 hPa 0,0 l/m 1,1 km/h (1 Bft) NW 315 8,8 C 14,5 C 0,0 km/h (0 Bft)
14.08.2013 08:20 14,1 C 71 % 1024,0 hPa 0,0 l/m 1,1 km/h (1 Bft) N 360 8,9 C 14,8 C 1,9 km/h (1 Bft)
14.08.2013 08:25 13,5 C 71 % 1024,0 hPa 0,0 l/m 0,6 km/h (0 Bft) N-NW 337 8,3 C 14,5 C 2,1 km/h (1 Bft)
14.08.2013 08:30 13,4 C 70 % 1024,0 hPa 0,0 l/m 0,8 km/h (0 Bft) NW 315 8,0 C 14,2 C 2,7 km/h (1 Bft)
14.08.2013 08:35 16,9 C 66 % 1024,0 hPa 0,0 l/m 2,3 km/h (1 Bft) W-NW 292 10,5 C 15,0 C 4,8 km/h (1 Bft)
14.08.2013 08:40 17,6 C 63 % 1024,0 hPa 0,0 l/m 2,3 km/h (1 Bft) N-NW 337 10,5 C 16,0 C 0,0 km/h (0 Bft)
14.08.2013 08:45 18,1 C 58 % 1024,0 hPa 0,0 l/m 2,4 km/h (1 Bft) NW 315 9,7 C 17,1 C 5,6 km/h (1 Bft)
14.08.2013 08:50 17,5 C 56 % 1024,0 hPa 0,0 l/m 2,6 km/h (1 Bft) W 270 8,6 C 17,5 C 2,9 km/h (1 Bft)
14.08.2013 08:55 18,7 C 58 % 1024,0 hPa 0,0 l/m 2,7 km/h (1 Bft) W-NW 292 10,3 C 18,1 C 2,3 km/h (1 Bft)
14.08.2013 09:00 18,8 C 56 % 1024,1 hPa 0,0 l/m 3,4 km/h (1 Bft) W-NW 292 9,8 C 18,2 C 3,5 km/h (1 Bft)
14.08.2013 09:05 18,7 C 54 % 1024,1 hPa 0,0 l/m 3,5 km/h (1 Bft) N-NW 337 9,2 C 18,5 C 7,4 km/h (2 Bft)
14.08.2013 09:10 19,0 C 53 % 1024,1 hPa 0,0 l/m 2,7 km/h (1 Bft) N-NO 22 9,2 C 18,8 C 1,9 km/h (1 Bft)
14.08.2013 09:15 18,8 C 53 % 1024,1 hPa 0,0 l/m 2,6 km/h (1 Bft) N-NO 22 9,0 C 19,2 C 2,4 km/h (1 Bft)
14.08.2013 09:20 19,6 C 54 % 1023,9 hPa 0,0 l/m 2,3 km/h (1 Bft) W-NW 292 10,0 C 19,6 C 6,4 km/h (2 Bft)
14.08.2013 09:25 19,1 C 51 % 1023,9 hPa 0,0 l/m 2,6 km/h (1 Bft) W-NW 292 8,7 C 19,4 C 2,9 km/h (1 Bft)
14.08.2013 09:30 19,2 C 51 % 1023,9 hPa 0,0 l/m 3,2 km/h (1 Bft) W-NW 292 8,8 C 19,6 C 3,7 km/h (1 Bft)
14.08.2013 09:35 19,6 C 50 % 1023,9 hPa 0,0 l/m 3,5 km/h (1 Bft) W-NW 292 8,9 C 19,9 C 7,6 km/h (2 Bft)
14.08.2013 09:40 20,5 C 51 % 1024,1 hPa 0,0 l/m 3,1 km/h (1 Bft) N-NW 337 10,0 C 20,0 C 5,0 km/h (1 Bft)
14.08.2013 09:45 18,6 C 53 % 1024,1 hPa 0,0 l/m 2,4 km/h (1 Bft) W-NW 292 8,8 C 19,8 C 7,2 km/h (2 Bft)
14.08.2013 09:50 19,2 C 50 % 1024,1 hPa 0,0 l/m 3,5 km/h (1 Bft) N-NW 337 8,5 C 19,5 C 9,5 km/h (2 Bft)
14.08.2013 09:55 19,7 C 52 % 1024,1 hPa 0,0 l/m 4,7 km/h (1 Bft) N-NW 337 9,6 C 19,6 C 5,8 km/h (2 Bft)
14.08.2013 10:00 18,0 C 54 % 1024,4 hPa 0,0 l/m 4,2 km/h (1 Bft) N-NW 337 8,6 C 19,6 C 5,5 km/h (1 Bft)
14.08.2013 10:05 17,2 C 58 % 1024,4 hPa 0,0 l/m 3,4 km/h (1 Bft) N-NW 337 8,9 C 18,6 C 3,5 km/h (1 Bft)
14.08.2013 10:10 16,8 C 58 % 1024,4 hPa 0,0 l/m 2,9 km/h (1 Bft) W-NW 292 8,5 C 18,2 C 3,4 km/h (1 Bft)
14.08.2013 10:15 16,8 C 59 % 1024,4 hPa 0,0 l/m 2,9 km/h (1 Bft) W-NW 292 8,7 C 17,6 C 5,5 km/h (1 Bft)
14.08.2013 10:20 16,9 C 59 % 1024,9 hPa 0,0 l/m 3,4 km/h (1 Bft) W-NW 292 8,8 C 17,7 C 4,2 km/h (1 Bft)
14.08.2013 10:25 16,6 C 59 % 1024,9 hPa 0,0 l/m 3,5 km/h (1 Bft) N-NW 337 8,6 C 17,8 C 8,0 km/h (2 Bft)
14.08.2013 10:30 16,6 C 60 % 1024,9 hPa 0,0 l/m 3,9 km/h (1 Bft) NW 315 8,8 C 17,8 C 6,1 km/h (2 Bft)
14.08.2013 10:35 17,2 C 59 % 1024,9 hPa 0,0 l/m 3,4 km/h (1 Bft) N 360 9,1 C 18,0 C 3,2 km/h (1 Bft)
14.08.2013 10:40 17,7 C 59 % 1025,1 hPa 0,0 l/m 2,9 km/h (1 Bft) N 360 9,6 C 18,2 C 6,4 km/h (2 Bft)
14.08.2013 10:45 17,4 C 58 % 1025,1 hPa 0,0 l/m 3,7 km/h (1 Bft) W-NW 292 9,1 C 18,3 C 5,8 km/h (2 Bft)
14.08.2013 10:50 18,5 C 58 % 1025,1 hPa 0,0 l/m 4,0 km/h (1 Bft) N 360 10,1 C 19,1 C 9,2 km/h (2 Bft)
14.08.2013 10:55 19,4 C 54 % 1025,1 hPa 0,0 l/m 2,7 km/h (1 Bft) N-NW 337 9,8 C 20,2 C 10,3 km/h (2 Bft)
14.08.2013 11:00 19,8 C 50 % 1025,1 hPa 0,0 l/m 2,7 km/h (1 Bft) N-NW 337 9,1 C 21,5 C 2,3 km/h (1 Bft)
14.08.2013 11:05 19,6 C 50 % 1025,1 hPa 0,0 l/m 3,2 km/h (1 Bft) SO 135 8,9 C 22,6 C 4,3 km/h (1 Bft)
14.08.2013 11:10 18,9 C 50 % 1025,1 hPa 0,0 l/m 3,4 km/h (1 Bft) N 360 8,2 C 22,2 C 4,5 km/h (1 Bft)
14.08.2013 11:15 18,8 C 53 % 1025,1 hPa 0,0 l/m 3,2 km/h (1 Bft) W 270 9,0 C 22,2 C 7,7 km/h (2 Bft)
14.08.2013 11:20 19,9 C 50 % 1025,3 hPa 0,0 l/m 3,4 km/h (1 Bft) N-NW 337 9,2 C 21,8 C 6,3 km/h (2 Bft)
14.08.2013 11:25 21,3 C 48 % 1025,3 hPa 0,0 l/m 2,9 km/h (1 Bft) N-NO 22 9,8 C 22,2 C 6,1 km/h (2 Bft)
14.08.2013 11:30 21,5 C 45 % 1025,3 hPa 0,0 l/m 2,9 km/h (1 Bft) N-NO 22 9,1 C 22,7 C 4,2 km/h (1 Bft)
14.08.2013 11:35 18,9 C 50 % 1025,3 hPa 0,0 l/m 4,0 km/h (1 Bft) O-NO 67 8,2 C 21,6 C 2,7 km/h (1 Bft)
14.08.2013 11:40 21,5 C 48 % 1025,3 hPa 0,0 l/m 3,5 km/h (1 Bft) O-NO 67 10,0 C 21,3 C 0,0 km/h (0 Bft)
14.08.2013 11:45 19,5 C 51 % 1025,3 hPa 0,0 l/m 3,5 km/h (1 Bft) W-NW 292 9,1 C 20,9 C 5,0 km/h (1 Bft)
14.08.2013 11:50 18,6 C 53 % 1025,3 hPa 0,0 l/m 3,7 km/h (1 Bft) N 360 8,8 C 20,2 C 2,7 km/h (1 Bft)
14.08.2013 11:55 18,5 C 53 % 1025,3 hPa 0,0 l/m 1,9 km/h (1 Bft) S-SO 157 8,7 C 20,0 C 2,7 km/h (1 Bft)
14.08.2013 12:00 18,1 C 54 % 1025,2 hPa 0,0 l/m 1,9 km/h (1 Bft) NO 45 8,6 C 19,9 C 4,8 km/h (1 Bft)
14.08.2013 12:05 17,8 C 57 % 1025,2 hPa 0,0 l/m 2,3 km/h (1 Bft) SW 225 9,2 C 19,6 C 4,3 km/h (1 Bft)
14.08.2013 12:10 17,5 C 58 % 1025,2 hPa 0,0 l/m 2,6 km/h (1 Bft) W-SW 247 9,1 C 19,4 C 4,3 km/h (1 Bft)
14.08.2013 12:15 17,4 C 58 % 1025,2 hPa 0,0 l/m 3,4 km/h (1 Bft) N-NO 22 9,1 C 18,9 C 2,7 km/h (1 Bft)
14.08.2013 12:20 18,1 C 55 % 1024,9 hPa 0,0 l/m 4,2 km/h (1 Bft) W-NW 292 8,9 C 19,4 C 4,2 km/h (1 Bft)
14.08.2013 12:25 19,9 C 50 % 1024,9 hPa 0,0 l/m 4,3 km/h (1 Bft) N-NW 337 9,2 C 20,5 C 8,5 km/h (2 Bft)
14.08.2013 12:30 19,5 C 51 % 1024,9 hPa 0,0 l/m 4,7 km/h (1 Bft) W-NW 292 9,1 C 21,0 C 8,2 km/h (2 Bft)
14.08.2013 12:35 17,6 C 56 % 1024,9 hPa 0,0 l/m 4,2 km/h (1 Bft) N 360 8,7 C 20,2 C 3,1 km/h (1 Bft)
14.08.2013 12:40 18,0 C 55 % 1025,2 hPa 0,0 l/m 3,4 km/h (1 Bft) W-SW 247 8,8 C 20,0 C 5,3 km/h (1 Bft)
14.08.2013 12:45 17,1 C 56 % 1025,2 hPa 0,0 l/m 3,1 km/h (1 Bft) O-SO 112 8,3 C 19,3 C 2,1 km/h (1 Bft)
14.08.2013 12:50 17,1 C 57 % 1025,2 hPa 0,0 l/m 2,6 km/h (1 Bft) N-NW 337 8,5 C 19,2 C 3,5 km/h (1 Bft)
14.08.2013 12:55 17,5 C 58 % 1025,2 hPa 0,0 l/m 0,8 km/h (0 Bft) W-SW 247 9,1 C 19,0 C 1,9 km/h (1 Bft)
14.08.2013 13:00 17,6 C 58 % 1024,8 hPa 0,0 l/m 1,3 km/h (1 Bft) NO 45 9,2 C 19,1 C 5,0 km/h (1 Bft)
14.08.2013 13:05 17,7 C 58 % 1024,8 hPa 0,0 l/m 2,4 km/h (1 Bft) N-NW 337 9,3 C 19,3 C 6,0 km/h (2 Bft)
14.08.2013 13:10 17,5 C 59 % 1024,8 hPa 0,0 l/m 3,1 km/h (1 Bft) S 180 9,4 C 19,1 C 2,6 km/h (1 Bft)
14.08.2013 13:15 19,1 C 54 % 1024,8 hPa 0,0 l/m 3,4 km/h (1 Bft) W-NW 292 9,6 C 20,0 C 5,8 km/h (2 Bft)
14.08.2013 13:20 18,9 C 54 % 1025,1 hPa 0,0 l/m 3,1 km/h (1 Bft) NO 45 9,4 C 20,9 C 5,6 km/h (1 Bft)
14.08.2013 13:25 17,8 C 57 % 1025,1 hPa 0,0 l/m 3,7 km/h (1 Bft) N 360 9,2 C 20,6 C 2,6 km/h (1 Bft)
14.08.2013 13:30 17,2 C 58 % 1025,1 hPa 0,0 l/m 3,9 km/h (1 Bft) O 90 8,9 C 19,7 C 2,9 km/h (1 Bft)
14.08.2013 13:35 16,9 C 59 % 1025,1 hPa 0,0 l/m 3,1 km/h (1 Bft) N 360 8,8 C 18,7 C 3,2 km/h (1 Bft)
14.08.2013 13:40 16,7 C 59 % 1024,8 hPa 0,0 l/m 2,4 km/h (1 Bft) NO 45 8,6 C 18,3 C 2,4 km/h (1 Bft)
14.08.2013 13:45 16,9 C 60 % 1024,8 hPa 0,0 l/m 0,6 km/h (0 Bft) O 90 9,1 C 18,4 C 0,0 km/h (0 Bft)
14.08.2013 13:50 17,3 C 60 % 1024,8 hPa 0,0 l/m 0,2 km/h (0 Bft) NO 45 9,5 C 18,7 C 0,0 km/h (0 Bft)
14.08.2013 13:55 18,0 C 57 % 1024,8 hPa 0,0 l/m 0,5 km/h (0 Bft) N 360 9,4 C 19,7 C 0,0 km/h (0 Bft)
14.08.2013 14:00 18,5 C 55 % 1025,1 hPa 0,0 l/m 1,4 km/h (1 Bft) N-NW 337 9,3 C 20,3 C 2,6 km/h (1 Bft)
14.08.2013 14:05 18,1 C 54 % 1025,1 hPa 0,0 l/m 2,6 km/h (1 Bft) N 360 8,6 C 20,7 C 4,7 km/h (1 Bft)
14.08.2013 14:10 17,7 C 55 % 1025,1 hPa 0,0 l/m 3,1 km/h (1 Bft) NO 45 8,5 C 20,5 C 3,4 km/h (1 Bft)
14.08.2013 14:15 17,7 C 56 % 1025,1 hPa 0,0 l/m 4,2 km/h (1 Bft) O-NO 67 8,8 C 19,9 C 4,7 km/h (1 Bft)
14.08.2013 14:20 18,0 C 55 % 1025,3 hPa 0,0 l/m 3,9 km/h (1 Bft) N-NW 337 8,8 C 19,8 C 2,6 km/h (1 Bft)
14.08.2013 14:25 18,3 C 53 % 1025,3 hPa 0,0 l/m 2,3 km/h (1 Bft) N-NW 337 8,6 C 20,1 C 2,4 km/h (1 Bft)
14.08.2013 14:30 18,0 C 52 % 1025,3 hPa 0,0 l/m 1,9 km/h (1 Bft) O-NO 67 8,0 C 20,2 C 4,3 km/h (1 Bft)
14.08.2013 14:35 17,8 C 57 % 1025,3 hPa 0,0 l/m 2,6 km/h (1 Bft) O-NO 67 9,2 C 19,8 C 0,0 km/h (0 Bft)
14.08.2013 14:40 17,4 C 57 % 1025,2 hPa 0,0 l/m 2,9 km/h (1 Bft) N-NW 337 8,8 C 19,7 C 2,1 km/h (1 Bft)
14.08.2013 14:45 17,6 C 56 % 1025,2 hPa 0,0 l/m 1,6 km/h (1 Bft) N-NO 22 8,7 C 19,7 C 1,6 km/h (1 Bft)
14.08.2013 14:50 18,1 C 56 % 1025,2 hPa 0,0 l/m 1,0 km/h (0 Bft) N-NW 337 9,2 C 19,8 C 2,3 km/h (1 Bft)
14.08.2013 14:55 18,4 C 55 % 1025,2 hPa 0,0 l/m 2,4 km/h (1 Bft) W 270 9,2 C 19,9 C 4,2 km/h (1 Bft)
14.08.2013 15:00 18,1 C 55 % 1025,4 hPa 0,0 l/m 3,2 km/h (1 Bft) O 90 8,9 C 20,0 C 2,3 km/h (1 Bft)
14.08.2013 15:05 18,2 C 55 % 1025,4 hPa 0,0 l/m 3,4 km/h (1 Bft) W-NW 292 9,0 C 19,6 C 3,5 km/h (1 Bft)
14.08.2013 15:10 18,3 C 55 % 1025,4 hPa 0,0 l/m 3,7 km/h (1 Bft) W-SW 247 9,1 C 19,4 C 3,9 km/h (1 Bft)
14.08.2013 15:15 18,0 C 53 % 1025,4 hPa 0,0 l/m 3,7 km/h (1 Bft) W 270 8,3 C 19,3 C 5,5 km/h (1 Bft)
14.08.2013 15:20 17,6 C 55 % 1025,2 hPa 0,0 l/m 3,7 km/h (1 Bft) W-NW 292 8,5 C 19,0 C 5,1 km/h (1 Bft)
14.08.2013 15:25 17,3 C 56 % 1025,2 hPa 0,0 l/m 3,7 km/h (1 Bft) W 270 8,4 C 18,4 C 3,7 km/h (1 Bft)
14.08.2013 15:30 17,1 C 56 % 1025,2 hPa 0,0 l/m 2,6 km/h (1 Bft) W-SW 247 8,3 C 18,1 C 2,6 km/h (1 Bft)
14.08.2013 15:35 16,9 C 56 % 1025,2 hPa 0,0 l/m 2,3 km/h (1 Bft) W-SW 247 8,1 C 17,8 C 2,6 km/h (1 Bft)
14.08.2013 15:40 16,8 C 58 % 1024,6 hPa 0,0 l/m 1,6 km/h (1 Bft) O-NO 67 8,5 C 17,8 C 1,8 km/h (1 Bft)
14.08.2013 15:45 16,7 C 59 % 1024,6 hPa 0,0 l/m 0,5 km/h (0 Bft) N-NW 337 8,6 C 18,2 C 1,8 km/h (1 Bft)
14.08.2013 15:50 17,0 C 63 % 1024,6 hPa 0,0 l/m 1,0 km/h (0 Bft) N-NW 337 9,9 C 18,3 C 1,6 km/h (1 Bft)
14.08.2013 15:55 17,2 C 60 % 1024,6 hPa 0,0 l/m 1,3 km/h (1 Bft) W-NW 292 9,4 C 18,6 C 1,6 km/h (1 Bft)
14.08.2013 16:00 17,5 C 58 % 1024,6 hPa 0,0 l/m 1,6 km/h (1 Bft) O 90 9,1 C 18,6 C 2,4 km/h (1 Bft)
14.08.2013 16:05 17,0 C 58 % 1024,6 hPa 0,0 l/m 2,3 km/h (1 Bft) N-NO 22 8,7 C 18,4 C 3,2 km/h (1 Bft)
14.08.2013 16:10 16,9 C 59 % 1024,6 hPa 0,0 l/m 2,1 km/h (1 Bft) NO 45 8,8 C 18,3 C 2,4 km/h (1 Bft)
14.08.2013 16:15 16,9 C 59 % 1024,6 hPa 0,0 l/m 2,4 km/h (1 Bft) W 270 8,8 C 18,0 C 3,4 km/h (1 Bft)
14.08.2013 16:20 16,8 C 59 % 1024,7 hPa 0,0 l/m 2,7 km/h (1 Bft) NO 45 8,7 C 17,9 C 4,7 km/h (1 Bft)
14.08.2013 16:25 16,6 C 59 % 1024,7 hPa 0,0 l/m 1,8 km/h (1 Bft) N-NW 337 8,6 C 17,7 C 1,8 km/h (1 Bft)
14.08.2013 16:30 16,6 C 59 % 1024,7 hPa 0,0 l/m 1,8 km/h (1 Bft) N 360 8,6 C 17,7 C 4,7 km/h (1 Bft)
14.08.2013 16:35 16,9 C 59 % 1024,7 hPa 0,0 l/m 2,1 km/h (1 Bft) NW 315 8,8 C 17,8 C 2,7 km/h (1 Bft)
14.08.2013 16:40 16,9 C 60 % 1024,8 hPa 0,0 l/m 1,8 km/h (1 Bft) O 90 9,1 C 17,9 C 2,4 km/h (1 Bft)
14.08.2013 16:45 16,5 C 60 % 1024,8 hPa 0,0 l/m 0,8 km/h (0 Bft) SW 225 8,7 C 17,7 C 0,0 km/h (0 Bft)
14.08.2013 16:50 16,1 C 61 % 1024,8 hPa 0,0 l/m 0,3 km/h (0 Bft) SO 135 8,6 C 17,6 C 0,0 km/h (0 Bft)
14.08.2013 16:55 16,0 C 62 % 1024,8 hPa 0,0 l/m 0,8 km/h (0 Bft) W-NW 292 8,7 C 17,2 C 2,9 km/h (1 Bft)
14.08.2013 17:00 16,1 C 60 % 1024,9 hPa 0,0 l/m 1,3 km/h (1 Bft) W 270 8,3 C 17,0 C 4,2 km/h (1 Bft)
14.08.2013 17:05 16,1 C 60 % 1024,9 hPa 0,0 l/m 1,8 km/h (1 Bft) W-NW 292 8,3 C 16,8 C 3,7 km/h (1 Bft)
14.08.2013 17:10 15,9 C 61 % 1024,9 hPa 0,0 l/m 1,4 km/h (1 Bft) W-NW 292 8,4 C 16,7 C 1,9 km/h (1 Bft)
14.08.2013 17:15 16,0 C 60 % 1024,9 hPa 0,0 l/m 0,8 km/h (0 Bft) W-NW 292 8,2 C 16,7 C 0,0 km/h (0 Bft)
14.08.2013 17:20 16,0 C 61 % 1024,8 hPa 0,0 l/m 0,5 km/h (0 Bft) N-NW 337 8,5 C 16,7 C 0,0 km/h (0 Bft)
14.08.2013 17:25 16,0 C 62 % 1024,8 hPa 0,0 l/m 0,8 km/h (0 Bft) W-SW 247 8,7 C 16,8 C 2,9 km/h (1 Bft)
14.08.2013 17:30 16,1 C 60 % 1024,8 hPa 0,0 l/m 0,8 km/h (0 Bft) W-NW 292 8,3 C 16,8 C 2,6 km/h (1 Bft)
14.08.2013 17:35 16,1 C 61 % 1024,8 hPa 0,0 l/m 0,5 km/h (0 Bft) N 360 8,6 C 17,0 C 0,0 km/h (0 Bft)
14.08.2013 17:40 16,1 C 63 % 1024,8 hPa 0,0 l/m 0,3 km/h (0 Bft) W-NW 292 9,1 C 17,1 C 0,0 km/h (0 Bft)
14.08.2013 17:45 16,3 C 63 % 1024,8 hPa 0,0 l/m 0,2 km/h (0 Bft) N 360 9,2 C 17,3 C 0,0 km/h (0 Bft)
14.08.2013 17:50 16,4 C 64 % 1024,8 hPa 0,0 l/m 0,3 km/h (0 Bft) W-SW 247 9,6 C 17,4 C 0,0 km/h (0 Bft)
14.08.2013 17:55 16,7 C 64 % 1024,8 hPa 0,0 l/m 0,3 km/h (0 Bft) NO 45 9,9 C 17,8 C 2,1 km/h (1 Bft)
14.08.2013 18:00 16,6 C 62 % 1024,8 hPa 0,0 l/m 0,3 km/h (0 Bft) N-NO 22 9,3 C 17,8 C 2,1 km/h (1 Bft)
14.08.2013 18:05 16,5 C 60 % 1024,8 hPa 0,0 l/m 0,3 km/h (0 Bft) O-NO 67 8,7 C 17,7 C 0,0 km/h (0 Bft)
14.08.2013 18:10 16,4 C 62 % 1024,8 hPa 0,0 l/m 0,3 km/h (0 Bft) O 90 9,1 C 17,6 C 0,0 km/h (0 Bft)
14.08.2013 18:15 16,0 C 63 % 1024,8 hPa 0,0 l/m 0,3 km/h (0 Bft) O 90 9,0 C 17,4 C 1,6 km/h (1 Bft)
14.08.2013 18:20 15,9 C 65 % 1024,9 hPa 0,0 l/m 0,5 km/h (0 Bft) O-NO 67 9,3 C 17,1 C 1,6 km/h (1 Bft)
14.08.2013 18:25 15,7 C 66 % 1024,9 hPa 0,0 l/m 0,3 km/h (0 Bft) O 90 9,4 C 16,8 C 0,0 km/h (0 Bft)
14.08.2013 18:30 15,7 C 66 % 1024,9 hPa 0,0 l/m 0,2 km/h (0 Bft) O 90 9,4 C 16,8 C 0,0 km/h (0 Bft)
14.08.2013 18:35 15,7 C 66 % 1024,9 hPa 0,0 l/m 0,2 km/h (0 Bft) O 90 9,4 C 16,7 C 0,0 km/h (0 Bft)
14.08.2013 18:40 15,7 C 66 % 1024,6 hPa 0,0 l/m 0,3 km/h (0 Bft) O-NO 67 9,4 C 16,6 C 0,0 km/h (0 Bft)
14.08.2013 18:45 15,6 C 66 % 1024,6 hPa 0,0 l/m 0,6 km/h (0 Bft) O-NO 67 9,3 C 16,6 C 1,8 km/h (1 Bft)
14.08.2013 18:50 15,6 C 66 % 1024,6 hPa 0,0 l/m 1,3 km/h (1 Bft) NO 45 9,3 C 16,4 C 2,7 km/h (1 Bft)
14.08.2013 18:55 15,5 C 65 % 1024,6 hPa 0,0 l/m 1,8 km/h (1 Bft) O 90 8,9 C 16,3 C 2,6 km/h (1 Bft)
14.08.2013 19:00 15,5 C 65 % 1024,7 hPa 0,0 l/m 1,4 km/h (1 Bft) O 90 8,9 C 16,2 C 0,0 km/h (0 Bft)
14.08.2013 19:05 15,4 C 66 % 1024,7 hPa 0,0 l/m 0,5 km/h (0 Bft) O-NO 67 9,1 C 16,2 C 0,0 km/h (0 Bft)
14.08.2013 19:10 15,4 C 66 % 1024,7 hPa 0,0 l/m 0,3 km/h (0 Bft) NO 45 9,1 C 16,0 C 0,0 km/h (0 Bft)
14.08.2013 19:15 15,3 C 66 % 1024,7 hPa 0,0 l/m 0,2 km/h (0 Bft) O 90 9,0 C 16,0 C 0,0 km/h (0 Bft)
14.08.2013 19:20 15,2 C 66 % 1024,8 hPa 0,0 l/m 0,2 km/h (0 Bft) O 90 8,9 C 15,9 C 1,6 km/h (1 Bft)
14.08.2013 19:25 15,1 C 66 % 1024,8 hPa 0,0 l/m 0,3 km/h (0 Bft) O-NO 67 8,8 C 15,8 C 0,0 km/h (0 Bft)
14.08.2013 19:30 15,0 C 67 % 1024,8 hPa 0,0 l/m 0,6 km/h (0 Bft) NO 45 8,9 C 15,6 C 2,1 km/h (1 Bft)
14.08.2013 19:35 14,8 C 67 % 1024,8 hPa 0,0 l/m 0,8 km/h (0 Bft) O 90 8,7 C 15,4 C 1,8 km/h (1 Bft)
14.08.2013 19:40 14,7 C 68 % 1024,6 hPa 0,0 l/m 0,8 km/h (0 Bft) NO 45 8,9 C 15,3 C 0,0 km/h (0 Bft)
14.08.2013 19:45 14,6 C 68 % 1024,6 hPa 0,0 l/m 0,5 km/h (0 Bft) O 90 8,8 C 15,0 C 0,0 km/h (0 Bft)
14.08.2013 19:50 14,6 C 68 % 1024,6 hPa 0,0 l/m 0,3 km/h (0 Bft) O 90 8,8 C 15,0 C 2,7 km/h (1 Bft)
14.08.2013 19:55 14,6 C 69 % 1024,6 hPa 0,0 l/m 0,3 km/h (0 Bft) O 90 9,0 C 14,8 C 0,0 km/h (0 Bft)
14.08.2013 20:00 14,5 C 69 % 1024,9 hPa 0,0 l/m 0,3 km/h (0 Bft) SO 135 8,9 C 14,8 C 0,0 km/h (0 Bft)
14.08.2013 20:05 14,3 C 69 % 1024,9 hPa 0,0 l/m 0,3 km/h (0 Bft) O 90 8,7 C 14,7 C 1,8 km/h (1 Bft)
14.08.2013 20:10 14,2 C 69 % 1024,9 hPa 0,0 l/m 1,1 km/h (1 Bft) NO 45 8,6 C 14,5 C 2,3 km/h (1 Bft)
14.08.2013 20:15 14,1 C 71 % 1024,9 hPa 0,0 l/m 1,3 km/h (1 Bft) O-NO 67 8,9 C 14,4 C 2,3 km/h (1 Bft)
14.08.2013 20:20 14,1 C 71 % 1024,9 hPa 0,0 l/m 1,3 km/h (1 Bft) O-SO 112 8,9 C 14,3 C 1,6 km/h (1 Bft)
14.08.2013 20:25 14,0 C 72 % 1024,9 hPa 0,0 l/m 1,4 km/h (1 Bft) NO 45 9,0 C 14,1 C 0,0 km/h (0 Bft)
14.08.2013 20:30 13,9 C 72 % 1024,9 hPa 0,0 l/m 0,6 km/h (0 Bft) O-NO 67 8,9 C 14,1 C 0,0 km/h (0 Bft)
14.08.2013 20:35 13,9 C 72 % 1024,9 hPa 0,0 l/m 0,3 km/h (0 Bft) O-NO 67 8,9 C 13,9 C 0,0 km/h (0 Bft)
14.08.2013 20:40 13,9 C 72 % 1024,9 hPa 0,0 l/m 0,8 km/h (0 Bft) O-NO 67 8,9 C 13,8 C 2,4 km/h (1 Bft)
14.08.2013 20:45 13,9 C 71 % 1024,9 hPa 0,0 l/m 1,6 km/h (1 Bft) NO 45 8,7 C 13,8 C 1,9 km/h (1 Bft)
14.08.2013 20:50 13,8 C 71 % 1024,9 hPa 0,0 l/m 1,6 km/h (1 Bft) NO 45 8,6 C 13,8 C 3,1 km/h (1 Bft)
14.08.2013 20:55 13,7 C 71 % 1024,9 hPa 0,0 l/m 1,0 km/h (0 Bft) NO 45 8,5 C 13,7 C 0,0 km/h (0 Bft)
14.08.2013 21:00 13,7 C 72 % 1025,2 hPa 0,0 l/m 1,0 km/h (0 Bft) O-NO 67 8,7 C 13,6 C 2,6 km/h (1 Bft)
14.08.2013 21:05 13,6 C 72 % 1025,2 hPa 0,0 l/m 1,3 km/h (1 Bft) NO 45 8,6 C 13,5 C 3,5 km/h (1 Bft)
14.08.2013 21:10 13,6 C 72 % 1025,2 hPa 0,0 l/m 1,3 km/h (1 Bft) O 90 8,6 C 13,5 C 0,0 km/h (0 Bft)
14.08.2013 21:15 13,6 C 71 % 1025,2 hPa 0,0 l/m 0,6 km/h (0 Bft) O-NO 67 8,4 C 13,4 C 0,0 km/h (0 Bft)
14.08.2013 21:20 13,5 C 72 % 1025,3 hPa 0,0 l/m 0,3 km/h (0 Bft) O 90 8,6 C 13,3 C 0,0 km/h (0 Bft)
14.08.2013 21:25 13,4 C 72 % 1025,3 hPa 0,0 l/m 0,6 km/h (0 Bft) O 90 8,5 C 13,3 C 0,0 km/h (0 Bft)
14.08.2013 21:30 13,3 C 73 % 1025,3 hPa 0,0 l/m 0,6 km/h (0 Bft) O-NO 67 8,6 C 13,3 C 0,0 km/h (0 Bft)
14.08.2013 21:35 13,2 C 74 % 1025,3 hPa 0,0 l/m 0,3 km/h (0 Bft) SO 135 8,7 C 13,1 C 1,8 km/h (1 Bft)
14.08.2013 21:40 13,2 C 74 % 1025,4 hPa 0,0 l/m 0,8 km/h (0 Bft) SO 135 8,7 C 13,1 C 2,1 km/h (1 Bft)
14.08.2013 21:45 13,3 C 73 % 1025,4 hPa 0,0 l/m 1,9 km/h (1 Bft) O 90 8,6 C 13,1 C 3,7 km/h (1 Bft)
14.08.2013 21:50 13,2 C 73 % 1025,4 hPa 0,0 l/m 2,3 km/h (1 Bft) O-SO 112 8,5 C 13,1 C 1,8 km/h (1 Bft)
14.08.2013 21:55 13,1 C 74 % 1025,4 hPa 0,0 l/m 1,4 km/h (1 Bft) O 90 8,6 C 13,1 C 0,0 km/h (0 Bft)
14.08.2013 22:00 13,0 C 74 % 1025,6 hPa 0,0 l/m 0,5 km/h (0 Bft) O-SO 112 8,5 C 13,0 C 0,0 km/h (0 Bft)
14.08.2013 22:05 12,8 C 77 % 1025,6 hPa 0,0 l/m 0,0 km/h (0 Bft) NO 45 8,9 C 12,9 C 0,0 km/h (0 Bft)
14.08.2013 22:10 12,7 C 77 % 1025,6 hPa 0,0 l/m 0,0 km/h (0 Bft) NO 45 8,8 C 12,7 C 0,0 km/h (0 Bft)
14.08.2013 22:15 12,7 C 77 % 1025,6 hPa 0,0 l/m 0,0 km/h (0 Bft) O 90 8,8 C 12,6 C 0,0 km/h (0 Bft)
14.08.2013 22:20 12,7 C 77 % 1025,7 hPa 0,0 l/m 0,0 km/h (0 Bft) O 90 8,8 C 12,6 C 0,0 km/h (0 Bft)
14.08.2013 22:25 12,7 C 77 % 1025,7 hPa 0,0 l/m 0,2 km/h (0 Bft) O-NO 67 8,8 C 12,5 C 2,6 km/h (1 Bft)
14.08.2013 22:30 12,7 C 78 % 1025,7 hPa 0,0 l/m 0,8 km/h (0 Bft) O 90 9,0 C 12,5 C 1,8 km/h (1 Bft)
14.08.2013 22:35 12,6 C 78 % 1025,7 hPa 0,0 l/m 1,4 km/h (1 Bft) O-NO 67 8,9 C 12,5 C 2,3 km/h (1 Bft)
14.08.2013 22:40 12,5 C 78 % 1025,6 hPa 0,0 l/m 1,4 km/h (1 Bft) O 90 8,8 C 12,4 C 2,1 km/h (1 Bft)
14.08.2013 22:45 12,4 C 78 % 1025,6 hPa 0,0 l/m 2,1 km/h (1 Bft) O 90 8,7 C 12,4 C 2,1 km/h (1 Bft)
14.08.2013 22:50 12,3 C 78 % 1025,6 hPa 0,0 l/m 1,9 km/h (1 Bft) O-NO 67 8,6 C 12,3 C 2,4 km/h (1 Bft)
14.08.2013 22:55 12,4 C 78 % 1025,6 hPa 0,0 l/m 1,8 km/h (1 Bft) O 90 8,7 C 12,1 C 4,3 km/h (1 Bft)
14.08.2013 23:00 12,4 C 78 % 1025,5 hPa 0,0 l/m 2,7 km/h (1 Bft) O-NO 67 8,7 C 12,1 C 5,0 km/h (1 Bft)
14.08.2013 23:05 12,4 C 78 % 1025,5 hPa 0,0 l/m 2,6 km/h (1 Bft) N-NO 22 8,7 C 12,2 C 0,0 km/h (0 Bft)
14.08.2013 23:10 12,3 C 78 % 1025,5 hPa 0,0 l/m 1,9 km/h (1 Bft) O 90 8,6 C 12,1 C 5,1 km/h (1 Bft)
14.08.2013 23:15 12,7 C 75 % 1025,5 hPa 0,0 l/m 2,1 km/h (1 Bft) O-SO 112 8,4 C 12,4 C 2,9 km/h (1 Bft)
14.08.2013 23:20 12,8 C 74 % 1025,8 hPa 0,0 l/m 2,3 km/h (1 Bft) O-NO 67 8,3 C 12,6 C 0,0 km/h (0 Bft)
14.08.2013 23:25 12,6 C 75 % 1025,8 hPa 0,0 l/m 0,8 km/h (0 Bft) O-NO 67 8,3 C 12,5 C 0,0 km/h (0 Bft)
14.08.2013 23:30 12,3 C 76 % 1025,8 hPa 0,0 l/m 0,2 km/h (0 Bft) NO 45 8,2 C 12,4 C 0,0 km/h (0 Bft)
14.08.2013 23:35 12,3 C 76 % 1025,8 hPa 0,0 l/m 0,2 km/h (0 Bft) O 90 8,2 C 12,2 C 0,0 km/h (0 Bft)
14.08.2013 23:40 12,2 C 77 % 1025,8 hPa 0,0 l/m 0,2 km/h (0 Bft) O 90 8,3 C 12,1 C 0,0 km/h (0 Bft)
14.08.2013 23:45 12,3 C 77 % 1025,8 hPa 0,0 l/m 0,8 km/h (0 Bft) O 90 8,4 C 12,1 C 0,0 km/h (0 Bft)
14.08.2013 23:50 12,3 C 77 % 1025,8 hPa 0,0 l/m 1,4 km/h (1 Bft) O-NO 67 8,4 C 12,1 C 2,6 km/h (1 Bft)
14.08.2013 23:55 12,3 C 77 % 1025,8 hPa 0,0 l/m 2,3 km/h (1 Bft) O 90 8,4 C 12,1 C 4,5 km/h (1 Bft)
_ Min-Zeit 05:55 11:30 06:35 - 22:20 - - 14:30 06:00 23:45
Minimum _ 10,7 C 45 % 1023,2 hPa - 0,0 km/h (0 Bft) - - 8,0 C 10,3 C 0,0 km/h (0 Bft)
_ Max-Zeit 11:40 07:20 23:55 23:55 12:30 - - 08:35 11:30 10:55
Maximum _ 21,5 C 86 % 1025,8 hPa 0,0 l/m 4,7 km/h
W-NW (1 Bft)
- - 10,5 C 22,7 C 10,3 km/h
N-NW (2 Bft)
Durchschnitt _ 14,8 C 70 % 1024,5 hPa #0,0 l/m 1,4 km/h (1 Bft) O - 9,0 C 15,3 C 2,0 km/h (1 Bft)